Location: *
(51.5000°N, 0.1100°W)
Time: 21:05:04
(UTC+00:00)

COBE Rocket - Pass Details

Date: 25 May 2024
Orbit: 678 x 776 km, 97.1° (Epoch: 16 June)

Event Time Altitude Azimuth Distance (km) Brightness Sun altitude
Rises 02:19:12 0° 9° (N) 3,133 8.5 -11.1°
Reaches altitude 10° 02:21:29 10° 6° (N) 2,224 7.5 -10.9°
Maximum altitude 02:26:16 57° 289° (WNW) 868 4.2 -10.5°
Enters shadow 02:30:35 13° 213° (SSW) 2,048 5.5 -10.1°
